TimeMST,TemperatureF,Dew PointF,Humidity,Sea Level PressureIn,VisibilityMPH,Wind Direction,Wind SpeedMPH,Gust SpeedMPH,PrecipitationIn,Events,Conditions,WindDirDegrees,DateUTC
12:53 AM,30.0,24.1,79,29.74,10.0,West,5.8,-,N/A,,Clear,260,2013-02-13 07:53:00
1:53 AM,33.1,26.1,75,29.72,10.0,West,5.8,-,N/A,,Overcast,280,2013-02-13 08:53:00
2:53 AM,32.0,26.1,79,29.70,10.0,WNW,5.8,-,N/A,,Overcast,290,2013-02-13 09:53:00
3:53 AM,37.0,30.0,76,29.70,10.0,WNW,12.7,-,N/A,,Overcast,300,2013-02-13 10:53:00
4:53 AM,37.9,28.9,70,29.70,10.0,West,16.1,-,0.00,,Overcast,280,2013-02-13 11:53:00
5:53 AM,37.9,28.9,70,29.72,10.0,WNW,19.6,26.5,N/A,,Overcast,290,2013-02-13 12:53:00
6:53 AM,36.0,28.0,73,29.74,10.0,West,12.7,-,N/A,,Scattered Clouds,260,2013-02-13 13:53:00
7:53 AM,35.1,28.9,78,29.75,10.0,West,10.4,-,N/A,,Mostly Cloudy,270,2013-02-13 14:53:00
8:53 AM,37.0,28.0,70,29.77,10.0,NW,12.7,-,N/A,,Clear,310,2013-02-13 15:53:00
9:53 AM,37.0,28.9,73,29.78,10.0,West,8.1,-,N/A,,Scattered Clouds,280,2013-02-13 16:53:00
10:53 AM,39.0,30.0,70,29.81,10.0,WNW,12.7,-,N/A,,Clear,290,2013-02-13 17:53:00
11:53 AM,39.0,28.9,67,29.82,10.0,WNW,17.3,-,N/A,,Clear,290,2013-02-13 18:53:00
12:53 PM,39.9,28.9,65,29.83,10.0,WNW,16.1,-,N/A,,Mostly Cloudy,300,2013-02-13 19:53:00
1:53 PM,39.9,27.0,60,29.83,10.0,NW,21.9,32.2,N/A,,Partly Cloudy,310,2013-02-13 20:53:00
2:53 PM,37.9,28.0,68,29.88,10.0,NW,23.0,32.2,N/A,,Clear,310,2013-02-13 21:53:00
3:53 PM,37.0,28.9,73,29.90,10.0,NW,18.4,25.3,N/A,,Clear,310,2013-02-13 22:53:00
4:53 PM,35.1,24.1,64,29.90,10.0,NW,26.5,33.4,N/A,,Clear,320,2013-02-13 23:53:00
5:53 PM,34.0,21.9,61,29.95,10.0,NW,19.6,29.9,N/A,,Partly Cloudy,310,2013-02-14 00:53:00
6:53 PM,32.0,21.0,64,29.97,10.0,NW,25.3,32.2,N/A,,Scattered Clouds,310,2013-02-14 01:53:00
7:53 PM,30.0,19.9,66,29.98,10.0,NW,23.0,34.5,N/A,,Clear,310,2013-02-14 02:53:00
8:53 PM,30.0,19.9,66,29.99,10.0,West,19.6,29.9,N/A,,Mostly Cloudy,280,2013-02-14 03:53:00
9:31 PM,30.2,19.4,64,29.92,10.0,WNW,28.8,39.1,N/A,,Overcast,300,2013-02-14 04:31:00
9:53 PM,30.0,19.9,66,30.01,10.0,WNW,25.3,35.7,N/A,,Overcast,290,2013-02-14 04:53:00
10:53 PM,28.9,21.9,75,30.03,10.0,WNW,23.0,35.7,N/A,,Overcast,290,2013-02-14 05:53:00
11:53 PM,28.9,23.0,78,30.02,10.0,WNW,25.3,36.8,N/A,,Mostly Cloudy,290,2013-02-14 06:53:00